Location: Drevníky
(49.7206°N, 14.2728°E)
Time: 05:41:45
(UTC+00:00)

Daily predictions for brighter satellites

Satellite Brightness Start Highest point End
(mag) Time Altitude Azimuth Time Altitude Azimuth Time Altitude Azimuth
ATLAS 3B R/B 4.4 02:27:10 27° NNE 02:27:10 27° NNE 02:32:22 10° NE
Cosmos 2333 Rocket 4.4 02:28:57 20° NE 02:28:57 20° NE 02:32:27 10° E
Cosmos 2322 Rocket 4.2 02:50:37 21° NNE 02:51:05 21° NE 02:55:20 10° E
USA 59 Rocket 2.7 03:08:36 14° SE 03:08:36 14° SE 03:09:20 10° SE
NOSS 3-1 (A) 4.4 03:09:51 45° N 03:10:58 48° NE 03:18:58 10° ESE
Aureole 1 Rocket 4.3 03:13:02 74° SE 03:13:02 74° SE 03:19:49 10° SSE
SL-16 R/B 3.2 03:19:11 41° NE 03:19:41 42° NE 03:25:02 10° ESE
Cosmos 2082 Rocket 2.7 03:23:08 55° ENE 03:23:08 55° ENE 03:27:50 10° NE
USA 234 3.6 03:22:30 10° ENE 03:28:36 51° N 03:28:36 51° N
SeaSat 1 4.4 03:26:22 10° NNE 03:27:53 20° NNE 03:27:53 20° NNE
Cosmos 1980 Rocket 4.4 03:44:55 12° S 03:44:55 12° S 03:45:16 10° S
Cosmos 2278 4.3 03:42:22 42° N 03:43:50 52° NE 03:49:20 10° SE
Cosmos 2369 4.4 03:51:16 40° S 03:51:16 40° S 03:54:56 10° S
Celestis-02/Orion 38 4.5 03:46:12 10° NNE 03:51:18 80° ESE 03:51:35 77° SSE
SL-4 R/B 3.9 03:54:50 21° E 03:54:50 21° E 03:56:05 10° E
NOSS 3-1 (C) 3.9 03:52:29 56° WNW 03:54:14 76° SW 04:02:59 10° SSE
Timation 1 Rocket 4.5 03:56:01 55° NNW 03:56:01 55° NNW 04:01:09 10° NNE
Cosmos 1726 Rocket 4.1 04:01:10 49° SSE 04:01:10 49° SSE 04:04:18 10° SSE
Cosmos 841 Rocket 3.4 04:00:24 47° SSW 04:01:56 83° ESE 04:07:13 10° NNE
SJ-11-01 4.2 04:00:38 10° NNE 04:05:21 87° ESE 04:07:06 39° SSW
COSMOS 2455 3.3 04:07:00 43° SW 04:07:00 43° SW 04:11:50 10° S
Cosmos 2360 Rocket 2.8 04:09:26 25° N 04:12:35 52° NE 04:18:03 10° SE
Cosmos 2333 Rocket 2.4 04:11:00 34° NNW 04:13:38 73° ENE 04:19:22 10° SE
Cosmos 489 Rocket 4.4 04:09:16 10° SSW 04:15:35 85° WNW 04:21:54 10° NNE
Cosmos 1092 Rocket 4.5 04:09:55 10° S 04:16:04 61° E 04:22:12 10° NNE
Cosmos 1428 Rocket 4.4 04:11:51 10° S 04:18:05 83° W 04:24:26 10° N
ATLAS 3B R/B 4.0 04:14:24 22° NNW 04:18:43 36° NNE 04:25:44 10° E
Nadezhda 4 Rocket 3.9 04:12:29 10° SSW 04:18:47 70° WNW 04:25:03 10° N
NOSS 3-4 (A) 4.4 04:23:03 27° NNW 04:23:29 27° NNW 04:28:50 10° NE
Cosmos 1892 Rocket 3.5 04:19:12 10° S 04:23:34 83° E 04:28:00 10° NNE
NOSS 3-4 (C) 4.4 04:23:12 27° NNW 04:23:39 27° NNW 04:29:00 10° NE
Cosmos-2242 3.2 04:24:04 23° N 04:26:39 66° ENE 04:30:50 10° SSE
Cosmos 1898 Rocket 4.4 04:29:28 31° SW 04:29:28 31° SW 04:32:54 10° SSW
Cosmos 220 Rocket 4.2 04:29:35 48° NNW 04:29:35 48° NNW 04:32:51 10° NNE
Cosmos 2219 Rocket 3.1 04:25:49 16° NNW 04:30:03 45° NE 04:35:26 10° SE
COSMO-SKYMED 1 2.3 04:27:16 10° SSE 04:31:23 82° WSW 04:32:40 44° NNW
IRS-1D 3.3 04:28:08 10° NNE 04:33:09 77° WNW 04:38:13 10° SSW
Cosmos 2195 Rocket 4.4 04:26:58 10° SSW 04:33:15 80° W 04:39:38 10° N
Meteor 2-20 4.3 04:28:57 10° NNW 04:35:05 76° W 04:41:08 10° S
Cosmos 2322 Rocket 2.2 04:32:25 24° NNW 04:36:03 81° ENE 04:41:44 10° SSE
SL-24 R/B 4.3 04:31:35 10° N 04:37:04 80° WNW 04:41:47 10° SSW
Orbus 7S? 2.6 04:48:21 60° N 04:48:31 62° NNE 04:51:11 10° ESE
Cosmos 1937 Rocket 4.2 04:49:25 31° W 04:49:29 31° WSW 04:53:56 10° SSW
IGS 5A 4.1 04:48:14 10° NNE 04:52:11 55° E 04:56:07 10° S
BREEZE M DEB (TANK) 4.2 04:50:23 10° S 04:52:15 20° SE 04:55:06 10° E
USA 59 Rocket 2.0 04:54:18 15° SW 04:54:18 15° SW 04:56:16 10° SSW
Cosmos 2333 4.3 04:49:16 17° NNW 04:53:52 81° ENE 04:59:33 10° SSE
Meteor 2-3 Rocket 3.8 04:49:04 10° SSW 04:54:40 55° WNW 05:00:16 10° N
BREEZE-M DEB (TANK) 2.5 04:55:04 39° SSE 04:55:04 39° SSE 04:56:40 10° ESE
Cosmos 1833 Rocket 4.5 04:55:09 14° NNW 04:55:09 14° NNW 04:57:45 10° N
Meteor 1-26 Rocket 4.1 04:49:31 10° NNW 04:55:01 66° W 05:00:38 10° S
Cosmos 1484 Rocket 2.7 04:52:00 10° NNE 04:55:25 69° ESE 04:58:46 10° S
Meteor 2-20 Rocket 4.2 04:51:05 10° NNW 04:56:51 72° W 05:02:31 10° S
Cosmos 2058 Rocket 3.1 04:54:41 19° NNW 04:57:42 56° W 05:02:00 10° S
Cosmos 1437 Rocket 4.4 04:55:48 10° N 04:58:51 28° ENE 05:01:54 10° SE
SKYMED 2 4.3 04:56:06 10° SSW 04:59:56 31° W 05:00:14 30° W
COSMOS 2406 3.4 04:55:24 10° SW 05:00:52 49° NW 05:06:25 10° NNE
NOSS 3-1 (A) 4.1 04:57:15 22° NW 05:02:14 64° SW 05:10:57 10° SSE
SL-16 R/B 2.7 05:01:03 25° WNW 05:03:45 40° WSW 05:08:59 10° S
CZ-4 R/B 4.0 05:02:09 10° N 05:06:32 43° WNW 05:10:54 10° SW
Cosmos 2082 Rocket 3.0 05:05:01 25° WNW 05:06:45 29° NW 05:11:38 10° NNE
COSMOS 2428 4.0 05:01:47 10° NNW 05:07:00 35° NE 05:12:11 10° ESE
Cosmos 1743 3.5 05:04:05 10° SSE 05:07:10 43° E 05:10:17 10° NNE
SeaSat 1 4.1 05:04:52 10° N 05:07:30 16° NNW 05:07:30 16° NNW
Cosmos 1627 Rocket 4.5 05:03:29 10° SSW 05:09:27 55° WNW 05:15:30 10° N
ATLAS 5 CENTAUR R/B 3.3 05:10:38 11° N 05:10:47 11° N 05:11:50 10° N
USA 234 3.7 05:04:56 10° E 05:11:14 50° N 05:15:57 18° WNW
IRIDIUM 104 4.3 05:06:19 10° S 05:11:32 88° E 05:16:48 10° N
Okean 1 3.4 05:11:24 25° NW 05:12:59 41° W 05:16:20 10° SSW
BREEZE-M DEB (TANK) 2.4 05:12:02 29° W 05:13:16 84° S 05:15:30 10° E
CZ-2C R/B 4.4 05:12:33 10° NNW 05:13:16 12° NNW 05:13:16 12° NNW
Helios 1A Rocket 3.5 05:13:03 10° SSW 05:15:52 25° W 05:15:55 25° W
NOAA 12 4.5 05:11:55 10° N 05:16:49 40° WNW 05:21:41 10° SW
Cosmos 1814 Rocket 4.0 05:11:55 10° SSW 05:17:10 89° WNW 05:22:30 10° NNE
IRIDIUM 114 4.3 05:15:28 10° S 05:20:41 78° W 05:25:57 10° N
CBERS-1 4.0 05:15:50 10° NNE 05:20:58 88° ESE 05:26:03 10° SSW
Cosmos 2285 Rocket 4.0 05:17:24 10° NNW 05:23:44 65° WSW 05:30:03 10° S
BREEZE-M DEB (TANK) 2.9 05:23:26 23° W 05:25:04 89° S 05:30:54 10° E
USA 229 4.4 05:20:07 12° NW 05:26:46 58° NE 05:34:40 10° ESE
USA 229 DEB 4.4 05:20:12 12° NW 05:26:51 58° NE 05:34:45 10° ESE
BREEZE-M DEB (TANK) 3.7 05:24:35 16° WSW 05:26:59 40° S 05:34:05 10° ESE
IRIDIUM 103 4.3 05:24:41 10° SSW 05:29:52 66° W 05:35:05 10° N
SL-4 R/B 1.8 05:28:33 21° W 05:30:28 50° SSW 05:33:32 10° SE
Cosmos 2151 3.1 05:27:45 10° S 05:31:48 72° E 05:35:55 10° NNE
CORIOLIS 4.4 05:27:31 10° NNE 05:32:55 76° ESE 05:38:19 10° S
Cosmos 1758 Rocket 3.5 05:29:15 10° SSW 05:33:38 68° WNW 05:38:02 10° N
CZ-2D R/B 3.3 05:31:33 10° NNE 05:34:43 60° ESE 05:37:51 10° S
Cosmos 2026 Rocket 4.4 05:29:16 10° SW 05:34:46 35° WNW 05:40:22 10° N
Cosmos 2221 2.3 05:31:16 10° NNW 05:35:26 79° W 05:39:33 10° S
Thor Agena Rocket 3.5 05:34:03 10° NNE 05:39:09 88° ESE 05:44:11 10° SSW
Cosmos 2315 Rocket 4.4 05:32:50 10° N 05:39:12 68° ENE 05:45:28 10° SSE
Cosmos 1238 Rocket 3.1 05:39:37 10° N 05:42:22 43° ENE 05:45:06 10° SSE
Cosmos 405 Rocket 2.7 05:40:21 10° SW 05:43:26 38° WNW 05:46:32 10° N
SL-16 R/B 4.4 05:40:42 10° N 05:43:51 15° NNE 05:47:00 10° ENE
Cosmos 1707 2.1 05:42:55 10° N 05:46:04 87° WSW 05:49:11 10° S
Cosmos 158 Rocket 4.0 05:44:04 10° SW 05:49:20 60° WNW 05:54:31 10° NNE
KORONAS-FOTON 3.4 05:50:17 10° NNW 05:53:39 69° W 05:57:00 10° S
S3M 4.0 05:50:03 10° NNW 05:56:15 75° W 06:02:21 10° S
IRS-1C 4.3 05:50:55 10° NNE 05:56:17 81° ESE 06:01:36 10° SSW
Cosmos 2360 Rocket 3.1 05:51:27 10° NW 05:56:19 31° WSW 06:01:08 10° SSW
Cosmos 1626 Rocket 4.1 05:52:42 10° SW 05:56:46 35° WNW 06:00:50 10° N
Cosmos 2333 Rocket 3.5 05:53:03 10° NW 05:57:19 22° W 06:01:33 10° SSW
SMAP 3.1 05:54:53 10° N 05:59:29 62° WNW 06:04:05 10° SSW
Cosmos 1833 4.2 05:55:48 10° SW 06:01:24 64° WNW 06:07:07 10° NNE
SL-08 R/B 3.5 05:58:25 10° SSE 06:03:01 77° ENE 06:07:43 10° NNW
Resurs 01 Rocket 4.4 06:01:06 10° NE 06:04:14 19° E 06:07:20 10° SE
Cosmos 1842 2.7 06:00:58 10° NNW 06:04:18 75° W 06:07:36 10° S
Landsat 7 3.7 06:00:10 10° N 06:04:48 67° WNW 06:09:24 10° SSW
Cosmos 2237 Rocket 3.3 06:02:09 10° NNW 06:07:29 41° NE 06:12:46 10° ESE
Cosmos 1125 Rocket 3.8 06:03:13 10° NNW 06:08:19 52° WSW 06:13:22 10° S
Meteor 1-10 Rocket 4.5 06:04:38 10° NNW 06:10:26 59° W 06:16:15 10° S
ATLAS 3B R/B 3.1 06:02:40 10° NW 06:10:37 81° NE 06:18:09 10° SE
Meteor 1-25 Rocket 4.4 06:05:39 10° S 06:11:24 87° ESE 06:17:17 10° NNE
BREEZE-M DEB (TANK) 4.3 06:10:02 10° SW 06:12:15 38° SSE 06:15:45 10° E
ERS-1 4.4 06:08:19 10° NNE 06:13:18 83° WNW 06:18:15 10° SSW
Cosmos 2219 Rocket 2.9 06:08:45 10° NW 06:13:54 37° WSW 06:18:59 10° S
Cosmos 1842 Rocket 4.1 06:11:51 10° N 06:16:07 59° ENE 06:20:22 10° SSE
NOSS 0 Rocket 4.2 06:11:49 10° NNW 06:18:04 77° ENE 06:24:18 10° SE
BREEZE-M DEB (TANK) 3.7 06:07:56 10° W 06:22:17 87° S 06:26:04 10° E
